Time,TemperatureF,DewpointF,PressureIn,WindDirection,WindDirectionDegrees,WindSpeedMPH,WindSpeedGustMPH,Humidity,HourlyPrecipIn,Conditions,Clouds,dailyrainin,SoftwareType,DateUTC
2013-10-31 00:13:00,60.1,-40.8,30.11,WSW,247,0.0,-999.0,1,-99.99,,,0.00,Acu-Link.com,2013-10-31 04:13:00,
2013-10-31 00:29:00,60.1,-40.8,30.11,WSW,247,0.0,-999.0,1,-99.99,,,0.00,Acu-Link.com,2013-10-31 04:29:00,
2013-10-31 00:44:00,60.1,-40.8,30.10,WSW,247,0.0,-999.0,1,-99.99,,,0.00,Acu-Link.com,2013-10-31 04:44:00,
2013-10-31 00:59:00,60.1,-40.8,30.11,WSW,247,0.0,-999.0,1,-99.99,,,0.00,Acu-Link.com,2013-10-31 04:59:00,
2013-10-31 01:14:00,59.7,-41.0,30.10,WSW,247,0.0,-999.0,1,-99.99,,,0.00,Acu-Link.com,2013-10-31 05:14:00,
2013-10-31 01:29:00,59.7,-41.0,30.10,WSW,247,0.0,-999.0,1,-99.99,,,0.00,Acu-Link.com,2013-10-31 05:29:00,
2013-10-31 01:44:00,59.5,-41.2,30.09,WSW,247,1.7,-999.0,1,-99.99,,,0.00,Acu-Link.com,2013-10-31 05:44:00,
2013-10-31 01:59:00,60.1,-40.8,30.08,WSW,247,2.2,-999.0,1,-99.99,,,0.00,Acu-Link.com,2013-10-31 05:59:00,
2013-10-31 02:14:00,60.6,-40.5,30.08,WSW,247,0.0,-999.0,1,-99.99,,,0.00,Acu-Link.com,2013-10-31 06:14:00,
2013-10-31 02:30:00,60.3,-40.7,30.09,WSW,247,0.0,-999.0,1,-99.99,,,0.00,Acu-Link.com,2013-10-31 06:30:00,
2013-10-31 02:45:00,60.3,-40.7,30.09,WSW,247,2.7,-999.0,1,-99.99,,,0.00,Acu-Link.com,2013-10-31 06:45:00,
2013-10-31 03:02:00,60.6,-40.5,30.08,WSW,247,0.0,-999.0,1,-99.99,,,0.00,Acu-Link.com,2013-10-31 07:02:00,
2013-10-31 03:17:00,60.8,-40.4,30.09,WSW,247,1.7,-999.0,1,-99.99,,,0.00,Acu-Link.com,2013-10-31 07:17:00,
2013-10-31 03:32:00,60.6,-40.5,30.09,WSW,247,0.0,-999.0,1,-99.99,,,0.00,Acu-Link.com,2013-10-31 07:32:00,
2013-10-31 03:47:00,60.3,-40.7,30.08,WSW,247,0.0,-999.0,1,-99.99,,,0.00,Acu-Link.com,2013-10-31 07:47:00,
2013-10-31 04:03:00,59.5,-41.2,30.08,WSW,247,0.0,-999.0,1,-99.99,,,0.00,Acu-Link.com,2013-10-31 08:03:00,
2013-10-31 04:18:00,59.4,-41.2,30.08,WSW,247,0.0,-999.0,1,-99.99,,,0.00,Acu-Link.com,2013-10-31 08:18:00,
2013-10-31 04:33:00,59.2,-41.3,30.08,WSW,247,0.0,-999.0,1,-99.99,,,0.00,Acu-Link.com,2013-10-31 08:33:00,
2013-10-31 04:48:00,58.3,-41.9,30.08,WSW,247,0.0,-999.0,1,-99.99,,,0.00,Acu-Link.com,2013-10-31 08:48:00,
2013-10-31 05:03:00,57.7,-42.3,30.07,WSW,247,0.0,-999.0,1,-99.99,,,0.00,Acu-Link.com,2013-10-31 09:03:00,
2013-10-31 05:18:00,57.7,-42.3,30.07,WSW,247,0.0,-999.0,1,-99.99,,,0.00,Acu-Link.com,2013-10-31 09:18:00,
2013-10-31 05:34:00,57.9,-42.1,30.06,WSW,247,0.0,-999.0,1,-99.99,,,0.00,Acu-Link.com,2013-10-31 09:34:00,
2013-10-31 05:49:00,57.9,-42.1,30.07,WSW,247,0.0,-999.0,1,-99.99,,,0.00,Acu-Link.com,2013-10-31 09:49:00,
2013-10-31 06:04:00,57.6,-42.3,30.06,WSW,247,0.0,-999.0,1,-99.99,,,0.00,Acu-Link.com,2013-10-31 10:04:00,
2013-10-31 06:19:00,57.7,-42.3,30.06,WSW,247,0.0,-999.0,1,-99.99,,,0.00,Acu-Link.com,2013-10-31 10:19:00,
2013-10-31 06:34:00,57.9,-42.1,30.07,WSW,247,2.2,-999.0,1,-99.99,,,0.00,Acu-Link.com,2013-10-31 10:34:00,
2013-10-31 06:49:00,58.8,-41.6,30.06,WSW,247,1.7,-999.0,1,-99.99,,,0.00,Acu-Link.com,2013-10-31 10:49:00,
2013-10-31 07:04:00,59.0,50.0,30.06,WSW,247,2.2,-999.0,72,-99.99,,,0.00,Acu-Link.com,2013-10-31 11:04:00,
2013-10-31 07:20:00,58.8,55.3,30.07,WSW,247,3.7,-999.0,88,-99.99,,,0.00,Acu-Link.com,2013-10-31 11:20:00,
2013-10-31 07:35:00,59.0,58.4,30.06,WSW,247,1.1,-999.0,98,-99.99,,,0.00,Acu-Link.com,2013-10-31 11:35:00,
2013-10-31 07:50:00,58.8,58.2,30.06,WSW,247,0.0,-999.0,98,-99.99,,,0.00,Acu-Link.com,2013-10-31 11:50:00,
2013-10-31 08:05:00,59.4,58.8,30.06,WSW,247,2.2,-999.0,98,-99.99,,,0.00,Acu-Link.com,2013-10-31 12:05:00,
2013-10-31 08:20:00,59.7,59.1,30.07,WSW,247,0.0,-999.0,98,-99.99,,,0.00,Acu-Link.com,2013-10-31 12:20:00,
2013-10-31 08:36:00,60.1,59.5,30.06,WSW,247,2.2,-999.0,98,-99.99,,,0.00,Acu-Link.com,2013-10-31 12:36:00,
2013-10-31 08:51:00,60.6,60.0,30.06,WSW,247,3.2,-999.0,98,-99.99,,,0.00,Acu-Link.com,2013-10-31 12:51:00,
2013-10-31 09:06:00,61.9,61.3,30.06,WSW,247,2.7,-999.0,98,-99.99,,,0.00,Acu-Link.com,2013-10-31 13:06:00,
2013-10-31 09:21:00,62.6,48.5,30.06,WSW,247,2.7,-999.0,60,-99.99,,,0.00,Acu-Link.com,2013-10-31 13:21:00,
2013-10-31 09:36:00,63.5,-38.7,30.05,WSW,247,5.3,-999.0,1,-99.99,,,0.00,Acu-Link.com,2013-10-31 13:36:00,
2013-10-31 09:51:00,64.6,-38.1,30.05,South,180,4.7,-999.0,1,-99.99,,,0.00,Acu-Link.com,2013-10-31 13:51:00,
2013-10-31 10:06:00,65.1,-37.8,30.05,SSE,157,2.7,-999.0,1,-99.99,,,0.00,Acu-Link.com,2013-10-31 14:06:00,
2013-10-31 10:21:00,66.0,-37.2,30.05,SSE,157,6.3,-999.0,1,-99.99,,,0.00,Acu-Link.com,2013-10-31 14:21:00,
2013-10-31 10:37:00,67.3,-36.4,30.04,WSW,247,5.8,-999.0,1,-99.99,,,0.00,Acu-Link.com,2013-10-31 14:37:00,
2013-10-31 10:52:00,69.3,63.9,30.02,SW,225,6.8,-999.0,83,-99.99,,,0.00,Acu-Link.com,2013-10-31 14:52:00,
2013-10-31 11:07:00,70.0,-34.8,30.03,SW,225,6.8,-999.0,1,-99.99,,,0.00,Acu-Link.com,2013-10-31 15:07:00,
2013-10-31 11:22:00,69.6,-35.1,30.02,WSW,247,6.3,-999.0,1,-99.99,,,0.00,Acu-Link.com,2013-10-31 15:22:00,
2013-10-31 11:37:00,71.4,-34.0,30.02,West,270,5.8,-999.0,1,-99.99,,,0.00,Acu-Link.com,2013-10-31 15:37:00,
2013-10-31 11:52:00,72.1,-33.6,30.01,South,180,9.9,-999.0,1,-99.99,,,0.00,Acu-Link.com,2013-10-31 15:52:00,
2013-10-31 12:08:00,72.7,-33.2,30.00,SSW,202,4.2,-999.0,1,-99.99,,,0.00,Acu-Link.com,2013-10-31 16:08:00,
2013-10-31 12:23:00,72.5,-33.3,29.99,SW,225,9.4,-999.0,1,-99.99,,,0.00,Acu-Link.com,2013-10-31 16:23:00,
2013-10-31 12:39:00,74.3,-32.2,29.98,SSW,202,7.8,-999.0,1,-99.99,,,0.00,Acu-Link.com,2013-10-31 16:39:00,
2013-10-31 12:54:00,73.9,-32.5,29.97,SSW,202,4.2,-999.0,1,-99.99,,,0.00,Acu-Link.com,2013-10-31 16:54:00,
2013-10-31 13:09:00,73.2,-32.9,29.97,WSW,247,2.2,-999.0,1,-99.99,,,0.00,Acu-Link.com,2013-10-31 17:09:00,
2013-10-31 13:24:00,71.8,-33.7,29.96,West,270,4.7,-999.0,1,-99.99,,,0.00,Acu-Link.com,2013-10-31 17:24:00,
2013-10-31 13:39:00,72.3,-33.4,29.95,SW,225,9.9,-999.0,1,-99.99,,,0.00,Acu-Link.com,2013-10-31 17:39:00,
2013-10-31 13:55:00,72.7,-33.2,29.94,SSW,202,1.7,-999.0,1,-99.99,,,0.00,Acu-Link.com,2013-10-31 17:55:00,
2013-10-31 14:10:00,72.5,-33.3,29.94,SW,225,6.8,-999.0,1,-99.99,,,0.00,Acu-Link.com,2013-10-31 18:10:00,
2013-10-31 14:25:00,71.8,-33.7,29.93,SSW,202,6.8,-999.0,1,-99.99,,,0.00,Acu-Link.com,2013-10-31 18:25:00,
2013-10-31 14:40:00,72.0,-33.6,29.93,West,270,4.2,-999.0,1,-99.99,,,0.00,Acu-Link.com,2013-10-31 18:40:00,
2013-10-31 14:55:00,72.3,-33.4,29.92,West,270,4.2,-999.0,1,-99.99,,,0.00,Acu-Link.com,2013-10-31 18:55:00,
2013-10-31 15:10:00,72.0,-33.6,29.92,SW,225,4.7,-999.0,1,-99.99,,,0.00,Acu-Link.com,2013-10-31 19:10:00,
2013-10-31 15:26:00,71.8,-33.7,29.92,SSW,202,4.7,-999.0,1,-99.99,,,0.00,Acu-Link.com,2013-10-31 19:26:00,
2013-10-31 15:41:00,71.8,-33.7,29.92,South,180,5.3,-999.0,1,-99.99,,,0.00,Acu-Link.com,2013-10-31 19:41:00,
2013-10-31 15:56:00,68.5,-35.7,29.92,SW,225,5.3,-999.0,1,-99.99,,,0.00,Acu-Link.com,2013-10-31 19:56:00,
2013-10-31 16:11:00,67.1,-36.6,29.92,SSW,202,4.2,-999.0,1,-99.99,,,0.00,Acu-Link.com,2013-10-31 20:11:00,
2013-10-31 16:26:00,67.3,-36.4,29.91,SE,135,3.7,-999.0,1,-99.99,,,0.00,Acu-Link.com,2013-10-31 20:26:00,
2013-10-31 16:41:00,66.0,-37.2,29.91,SSE,157,3.7,-999.0,1,-99.99,,,0.00,Acu-Link.com,2013-10-31 20:41:00,
2013-10-31 16:57:00,65.8,-37.3,29.91,SSE,157,4.2,-999.0,1,-99.99,,,0.00,Acu-Link.com,2013-10-31 20:57:00,
2013-10-31 17:12:00,65.7,-37.4,29.90,SSE,157,1.7,-999.0,1,-99.99,,,0.00,Acu-Link.com,2013-10-31 21:12:00,
2013-10-31 17:27:00,65.5,-37.5,29.89,SSE,157,4.2,-999.0,1,-99.99,,,0.00,Acu-Link.com,2013-10-31 21:27:00,
2013-10-31 17:42:00,65.1,-37.8,29.89,SSE,157,5.3,-999.0,1,-99.99,,,0.00,Acu-Link.com,2013-10-31 21:42:00,
2013-10-31 17:58:00,65.1,-37.8,29.88,SSE,157,3.2,-999.0,1,-99.99,,,0.00,Acu-Link.com,2013-10-31 21:58:00,
2013-10-31 18:13:00,65.1,-37.8,29.87,SSE,157,3.2,-999.0,1,-99.99,,,0.00,Acu-Link.com,2013-10-31 22:13:00,
2013-10-31 18:28:00,64.9,-37.9,29.86,SSE,157,2.7,-999.0,1,-99.99,,,0.00,Acu-Link.com,2013-10-31 22:28:00,
2013-10-31 18:43:00,65.1,-37.8,29.86,SSE,157,2.7,-999.0,1,-99.99,,,0.00,Acu-Link.com,2013-10-31 22:43:00,
2013-10-31 18:59:00,65.5,-37.5,29.87,SSE,157,2.7,-999.0,1,-99.99,,,0.00,Acu-Link.com,2013-10-31 22:59:00,
2013-10-31 19:14:00,65.8,-37.3,29.87,SSW,202,2.7,-999.0,1,-99.99,,,0.00,Acu-Link.com,2013-10-31 23:14:00,
2013-10-31 19:29:00,66.2,-37.1,29.86,SSW,202,4.2,-999.0,1,-99.99,,,0.00,Acu-Link.com,2013-10-31 23:29:00,
2013-10-31 19:44:00,66.7,-36.8,29.85,SSW,202,6.3,-999.0,1,-99.99,,,0.00,Acu-Link.com,2013-10-31 23:44:00,
2013-10-31 19:59:00,66.9,-36.7,29.85,SSW,202,6.3,-999.0,1,-99.99,,,0.00,Acu-Link.com,2013-10-31 23:59:00,
2013-10-31 20:15:00,66.9,-36.7,29.85,SSW,202,7.8,-999.0,1,-99.99,,,0.00,Acu-Link.com,2013-11-01 00:15:00,
2013-10-31 20:30:00,66.9,-36.7,29.84,SSW,202,6.3,-999.0,1,-99.99,,,0.00,Acu-Link.com,2013-11-01 00:30:00,
2013-10-31 20:45:00,66.9,-36.7,29.83,SSW,202,3.2,-999.0,1,-99.99,,,0.00,Acu-Link.com,2013-11-01 00:45:00,
2013-10-31 21:00:00,66.9,-36.7,29.82,SSW,202,4.7,-999.0,1,-99.99,,,0.00,Acu-Link.com,2013-11-01 01:00:00,
2013-10-31 21:15:00,67.5,-36.3,29.81,SSW,202,3.7,-999.0,1,-99.99,,,0.00,Acu-Link.com,2013-11-01 01:15:00,
2013-10-31 21:30:00,67.6,-36.3,29.82,SSW,202,3.7,-999.0,1,-99.99,,,0.00,Acu-Link.com,2013-11-01 01:30:00,
2013-10-31 21:45:00,68.0,-36.0,29.83,SSW,202,5.3,-999.0,1,-99.99,,,0.00,Acu-Link.com,2013-11-01 01:45:00,
2013-10-31 22:01:00,68.2,-35.9,29.82,SSW,202,5.8,-999.0,1,-99.99,,,0.00,Acu-Link.com,2013-11-01 02:01:00,
2013-10-31 22:16:00,68.2,-35.9,29.81,SSW,202,7.3,-999.0,1,-99.99,,,0.00,Acu-Link.com,2013-11-01 02:16:00,
2013-10-31 22:31:00,68.0,-36.0,29.81,SSW,202,0.0,-999.0,1,-99.99,,,0.00,Acu-Link.com,2013-11-01 02:31:00,
2013-10-31 22:46:00,67.8,-36.1,29.81,SSW,202,6.3,-999.0,1,-99.99,,,0.00,Acu-Link.com,2013-11-01 02:46:00,
2013-10-31 23:01:00,67.5,-36.3,29.80,South,180,3.7,-999.0,1,-99.99,,,0.00,Acu-Link.com,2013-11-01 03:01:00,
2013-10-31 23:16:00,67.3,-36.4,29.80,SSE,157,7.3,-999.0,1,-99.99,,,0.00,Acu-Link.com,2013-11-01 03:16:00,
2013-10-31 23:31:00,67.6,-36.3,29.79,SSE,157,3.7,-999.0,1,-99.99,,,0.00,Acu-Link.com,2013-11-01 03:31:00,
2013-10-31 23:47:00,68.4,-35.8,29.78,South,180,4.7,-999.0,1,-99.99,,,0.00,Acu-Link.com,2013-11-01 03:47:00,